Hourly Weather Kitakyushu

Today, 27 July, Tuesday

Time Temperature Precipitation Wind Pressure Humidity
00:00 +27°C° 0 mm 2 mps 751 mmHg 83%
01:00 +26°C° 0 mm 2 mps 751 mmHg 84%
02:00 +26°C° 0 mm 2 mps 750 mmHg 85%
03:00 +26°C° 0 mm 2 mps 750 mmHg 86%
04:00 +26°C° 0 mm 1 mps 750 mmHg 86%
05:00 +26°C° 0 mm 1 mps 750 mmHg 86%
06:00 +24°C° 0 mm 0 mps 750 mmHg 86%
07:00 +28°C° 0 mm 1 mps 750 mmHg 76%
08:00 +30°C° 0 mm 1 mps 750 mmHg 66%
09:00 +32°C° 0 mm 1 mps 750 mmHg 56%
10:00 +34°C° 0 mm 2 mps 750 mmHg 51%
11:00 +35°C° 0 mm 2 mps 750 mmHg 47%
12:00 +37°C° 0 mm 3 mps 750 mmHg 43%
13:00 +36°C° 0 mm 4 mps 749 mmHg 44%
14:00 +36°C° 0 mm 4 mps 749 mmHg 44%
15:00 +36°C° 0 mm 5 mps 749 mmHg 45%
16:00 +35°C° 0 mm 5 mps 749 mmHg 50%
17:00 +33°C° 0 mm 5 mps 748 mmHg 56%
18:00 +32°C° 0 mm 5 mps 748 mmHg 61%
19:00 +30°C° 0 mm 4 mps 749 mmHg 69%
20:00 +29°C° 0 mm 4 mps 749 mmHg 76%
21:00 +28°C° 0 mm 3 mps 749 mmHg 84%
22:00 +27°C° 0 mm 2 mps 749 mmHg 85%
23:00 +27°C° 0 mm 2 mps 749 mmHg 87%

Tomorrow, 28 July, Wednesday

Time Temperature Precipitation Wind Pressure Humidity
00:00 +27°C° 0 mm 1 mps 749 mmHg 89%
01:00 +26°C° 0 mm 1 mps 749 mmHg 90%
02:00 +26°C° 0 mm 1 mps 749 mmHg 91%
03:00 +26°C° 0 mm 1 mps 749 mmHg 92%
04:00 +26°C° 0 mm 1 mps 749 mmHg 92%
05:00 +26°C° 0 mm 1 mps 750 mmHg 92%
06:00 +26°C° 0 mm 1 mps 750 mmHg 92%
07:00 +28°C° 0 mm 1 mps 750 mmHg 83%
08:00 +30°C° 0 mm 1 mps 750 mmHg 73%
09:00 +31°C° 0 mm 1 mps 750 mmHg 64%
10:00 +32°C° 0 mm 2 mps 750 mmHg 60%
11:00 +34°C° 0 mm 3 mps 750 mmHg 55%
12:00 +35°C° 0 mm 3 mps 749 mmHg 51%
13:00 +35°C° 0 mm 4 mps 749 mmHg 50%
14:00 +35°C° 0 mm 4 mps 749 mmHg 49%
15:00 +35°C° 0 mm 5 mps 748 mmHg 48%
16:00 +34°C° 0 mm 5 mps 749 mmHg 52%
17:00 +33°C° 0 mm 4 mps 749 mmHg 55%
18:00 +32°C° 0 mm 4 mps 749 mmHg 59%
19:00 +29°C° 0 mm 3 mps 749 mmHg 66%
20:00 +28°C° 0 mm 3 mps 749 mmHg 73%
21:00 +27°C° 0 mm 2 mps 750 mmHg 80%
22:00 +26°C° 0 mm 2 mps 750 mmHg 82%
23:00 +26°C° 0 mm 1 mps 750 mmHg 83%

Day after tomorrow, 29 July, Thursday

Time Temperature Precipitation Wind Pressure Humidity
00:00 +26°C° 0 mm 1 mps 750 mmHg 85%
01:00 +25°C° 0 mm 1 mps 750 mmHg 86%
02:00 +25°C° 0 mm 1 mps 750 mmHg 86%
03:00 +25°C° 0 mm 1 mps 749 mmHg 87%
04:00 +25°C° 0 mm 1 mps 750 mmHg 86%
05:00 +23°C° 0 mm 0 mps 750 mmHg 86%
06:00 +23°C° 0 mm 0 mps 750 mmHg 86%
07:00 +27°C° 0 mm 1 mps 750 mmHg 77%
08:00 +29°C° 0 mm 1 mps 750 mmHg 68%
09:00 +31°C° 0 mm 1 mps 750 mmHg 60%
10:00 +32°C° 0 mm 1 mps 750 mmHg 56%
11:00 +34°C° 0 mm 2 mps 749 mmHg 53%
12:00 +36°C° 0 mm 2 mps 749 mmHg 49%
13:00 +35°C° 0 mm 3 mps 749 mmHg 49%
14:00 +35°C° 0 mm 4 mps 748 mmHg 49%
15:00 +35°C° 0 mm 4 mps 748 mmHg 49%
16:00 +34°C° 0 mm 4 mps 748 mmHg 53%
17:00 +34°C° 0 mm 3 mps 748 mmHg 57%
18:00 +33°C° 0 mm 3 mps 748 mmHg 61%
19:00 +30°C° 0 mm 2 mps 749 mmHg 68%
20:00 +29°C° 0 mm 2 mps 749 mmHg 74%
21:00 +28°C° 0 mm 1 mps 749 mmHg 80%
22:00 +27°C° 0 mm 1 mps 749 mmHg 81%
23:00 +27°C° 0 mm 1 mps 749 mmHg 82%

30 July, Friday

Time Temperature Precipitation Wind Pressure Humidity
00:00 +27°C° 0 mm 1 mps 749 mmHg 83%
01:00 +27°C° 0 mm 1 mps 749 mmHg 84%
02:00 +27°C° 0 mm 1 mps 749 mmHg 84%
03:00 +26°C° 0 mm 2 mps 749 mmHg 84%
04:00 +26°C° 0 mm 2 mps 749 mmHg 85%
05:00 +26°C° 0 mm 2 mps 749 mmHg 86%
06:00 +26°C° 0 mm 2 mps 749 mmHg 87%
07:00 +28°C° 0 mm 2 mps 749 mmHg 78%
08:00 +30°C° 0 mm 1 mps 749 mmHg 69%
09:00 +31°C° 0 mm 1 mps 749 mmHg 60%
10:00 +34°C° 0 mm 2 mps 749 mmHg 54%
11:00 +35°C° 0 mm 2 mps 749 mmHg 49%
12:00 +36°C° 0 mm 3 mps 749 mmHg 44%
13:00 +36°C° 0 mm 3 mps 748 mmHg 43%
14:00 +36°C° 0 mm 4 mps 748 mmHg 42%
15:00 +36°C° 0 mm 4 mps 748 mmHg 42%
16:00 +34°C° 0 mm 4 mps 748 mmHg 46%
17:00 +33°C° 0 mm 3 mps 748 mmHg 51%
18:00 +31°C° 0 mm 3 mps 748 mmHg 55%
19:00 +30°C° 0 mm 3 mps 748 mmHg 60%
20:00 +29°C° 0 mm 2 mps 748 mmHg 65%
21:00 +28°C° 0 mm 2 mps 749 mmHg 71%
22:00 +28°C° 0 mm 1 mps 749 mmHg 72%
23:00 +27°C° 0 mm 1 mps 749 mmHg 73%

31 July, Saturday

Time Temperature Precipitation Wind Pressure Humidity
00:00 +27°C° 0 mm 1 mps 748 mmHg 73%
01:00 +27°C° 0 mm 1 mps 748 mmHg 75%
02:00 +27°C° 0 mm 1 mps 748 mmHg 76%
03:00 +26°C° 0 mm 1 mps 748 mmHg 78%
04:00 +26°C° 0 mm 1 mps 748 mmHg 78%
05:00 +26°C° 0 mm 1 mps 748 mmHg 79%
06:00 +26°C° 0 mm 1 mps 749 mmHg 80%
07:00 +28°C° 0 mm 1 mps 749 mmHg 71%
08:00 +30°C° 0 mm 1 mps 749 mmHg 63%
09:00 +32°C° 0 mm 1 mps 749 mmHg 55%
10:00 +33°C° 0 mm 1 mps 748 mmHg 50%
11:00 +35°C° 0 mm 1 mps 748 mmHg 45%
12:00 +37°C° 0 mm 2 mps 748 mmHg 41%
13:00 +37°C° 0 mm 2 mps 748 mmHg 41%
14:00 +37°C° 0 mm 2 mps 747 mmHg 42%
15:00 +36°C° 0 mm 3 mps 747 mmHg 42%
16:00 +35°C° 0 mm 3 mps 747 mmHg 48%
17:00 +34°C° 0 mm 2 mps 747 mmHg 54%
18:00 +32°C° 0 mm 2 mps 747 mmHg 60%
19:00 +31°C° 0 mm 2 mps 747 mmHg 64%
20:00 +30°C° 0 mm 1 mps 748 mmHg 69%
21:00 +29°C° 0 mm 1 mps 748 mmHg 73%
22:00 +29°C° 0 mm 1 mps 748 mmHg 74%
23:00 +29°C° 0 mm 1 mps 748 mmHg 74%

1 August, Sunday

Time Temperature Precipitation Wind Pressure Humidity
00:00 +27°C° 0 mm 0 mps 748 mmHg 74%
01:00 +28°C° 0.1 mm 1 mps 748 mmHg 75%
02:00 +28°C° 0.1 mm 1 mps 747 mmHg 75%
03:00 +27°C° 0.1 mm 1 mps 747 mmHg 76%
04:00 +27°C° 0.2 mm 1 mps 748 mmHg 77%
05:00 +27°C° 0.2 mm 1 mps 748 mmHg 77%
06:00 +27°C° 0.2 mm 1 mps 748 mmHg 78%
07:00 +28°C° 0.2 mm 1 mps 748 mmHg 75%
08:00 +29°C° 0.2 mm 1 mps 748 mmHg 71%
09:00 +30°C° 0.2 mm 1 mps 748 mmHg 67%
10:00 +31°C° 0 mm 1 mps 748 mmHg 65%
11:00 +32°C° 0 mm 1 mps 748 mmHg 62%
12:00 +32°C° 0 mm 2 mps 747 mmHg 60%
13:00 +34°C° 0 mm 2 mps 747 mmHg 57%
14:00 +35°C° 0 mm 2 mps 747 mmHg 53%
15:00 +36°C° 0 mm 3 mps 747 mmHg 50%
16:00 +35°C° 0 mm 3 mps 747 mmHg 55%
17:00 +34°C° 0 mm 3 mps 747 mmHg 60%
18:00 +33°C° 0 mm 3 mps 747 mmHg 65%
19:00 +31°C° 0 mm 2 mps 748 mmHg 69%
20:00 +30°C° 0 mm 1 mps 748 mmHg 72%
21:00 +29°C° 0 mm 1 mps 748 mmHg 76%
22:00 +28°C° 0 mm 1 mps 748 mmHg 76%
23:00 +28°C° 0 mm 1 mps 748 mmHg 77%
Show more